Home > Weather > Luxembourg > Past weeks

Flag for Luxembourg Weather for the Past 2 Weeks in Luxembourg, Luxembourg

Now
34 °F

Overcast.


Feels Like: 28 °F
Forecast: 34 / 41 °F
Wind: 7 mph from Northeast

Location: Luxembourg Airport

Current Time: Feb 13, 2016 at 4:51:10 AM

Latest Report: Feb 13, 2016 at 3:50 AM


Visibility: N/A

Pressure: 29.33 "Hg

Humidity: 87%

Dew point: 30 °F

Location of LuxembourgLocation

Historic Weather in Luxembourg — Graph

°F

Luxembourg Temperature Yesterday

Maximum temperature yesterday: 37 °F (at 1:20 PM)
Minimum temperature yesterday: 30 °F (at 1:50 AM)
Average temperature yesterday: 34 °F

High & Low Weather Summary for the Past Weeks

 TemperatureHumidityPressure
High52 °F (Jan 31, 9:50 PM)100% (Jan 29, 3:50 AM)30.39 "Hg (Jan 29, 3:50 AM)
Low30 °F (Feb 12, 1:50 AM)57% (Feb 3, 4:20 PM)29.00 "Hg (Feb 9, 2:50 PM)
Average41 °F89%29.85 "Hg
* Reported Jan 29 3:50 AM — Feb 13 3:20 AM, Luxembourg, Weather by CustomWeather, © 2016

Note: Actual official high and low records may vary slightly from our data, if they occured in-between our weather recording intervals... More about our weather records

Advertising

Luxembourg Weather History for the Previous 24 Hours

 ConditionsComfort  
Time TempWeatherWind HumidityBarometerVisibility
3:20 AM
Sat, Feb 13
34 °FOvercast.6 mph87%29.33 "HgN/A
2:50 AM34 °FMostly cloudy.8 mph87%29.33 "HgN/A
2:20 AM34 °FOvercast.8 mph87%29.33 "HgN/A
1:50 AM34 °FOvercast.8 mph87%29.33 "HgN/A
1:20 AM34 °FOvercast.8 mph87%29.33 "HgN/A
12:50 AM36 °FOvercast.8 mph81%29.33 "HgN/A
12:20 AM36 °FOvercast.8 mph81%29.33 "HgN/A
11:50 PM
Fri, Feb 12
36 °FLow clouds.8 mph81%29.33 "HgN/A
11:20 PM36 °FPassing clouds.7 mph81%29.30 "HgN/A
10:50 PM34 °FPassing clouds.10 mph87%29.30 "HgN/A
10:20 PM34 °FPassing clouds.13 mph87%29.30 "HgN/A
9:50 PM36 °FPassing clouds.12 mph81%29.33 "HgN/A
9:20 PM36 °FPartly cloudy.8 mph87%29.33 "HgN/A
8:50 PM36 °FPassing clouds.9 mph87%29.33 "HgN/A
8:20 PM36 °FPartly cloudy.9 mph87%29.33 "HgN/A
7:50 PM36 °FLight rain. Passing clouds.10 mph87%29.33 "HgN/A
7:20 PM36 °FLight rain. Passing clouds.6 mph87%29.33 "HgN/A
6:50 PM36 °FLight rain. Passing clouds.6 mph87%29.33 "HgN/A
6:20 PM36 °FLight rain. Partly cloudy.9 mph87%29.33 "HgN/A
5:50 PM37 °FPassing clouds.8 mph75%29.33 "HgN/A
5:20 PM37 °FScattered clouds.8 mph75%29.33 "HgN/A
4:50 PM37 °FPassing clouds.10 mph75%29.33 "HgN/A
4:20 PM37 °FPassing clouds.12 mph75%29.33 "HgN/A
3:50 PM37 °FPassing clouds.10 mph75%29.33 "HgN/A
3:20 PM37 °FPassing clouds.9 mph81%29.33 "HgN/A
2:50 PM37 °FScattered clouds.8 mph75%29.36 "HgN/A
2:20 PM37 °FPartly sunny.9 mph75%29.39 "HgN/A
1:50 PM37 °FScattered clouds.8 mph75%29.39 "HgN/A
1:20 PM37 °FScattered clouds.8 mph81%29.42 "HgN/A
12:50 PM36 °FPartly sunny.8 mph81%29.45 "HgN/A
12:20 PM36 °FPartly sunny.10 mph81%29.47 "HgN/A
11:50 AM36 °FPartly sunny.8 mph81%29.47 "HgN/A
11:20 AM34 °FPartly sunny.7 mph87%29.50 "HgN/A
10:50 AM32 °FPartly sunny.8 mph93%29.50 "HgN/A
10:20 AM32 °FPartly sunny.8 mph93%29.53 "HgN/A
9:50 AM32 °FPartly sunny.8 mph93%29.53 "HgN/A
9:20 AM32 °FPartly sunny.9 mph93%29.56 "HgN/A
8:50 AM32 °FPartly sunny.7 mph93%29.56 "HgN/A
8:20 AM32 °FPartly sunny.7 mph93%29.56 "Hg6 mi
7:50 AM32 °FPassing clouds.6 mph93%29.56 "Hg6 mi
7:20 AM32 °FPartly cloudy.6 mph93%29.59 "HgN/A
6:50 AM32 °FLow clouds.8 mph93%29.59 "HgN/A
6:20 AM32 °FLow clouds.8 mph93%29.62 "HgN/A
5:50 AM32 °FLow clouds.7 mph100%29.62 "Hg4 mi
5:20 AM32 °FIce fog.6 mph100%29.62 "Hg3 mi
4:50 AM32 °FIce fog.3 mph100%29.62 "Hg2 mi
4:20 AM32 °FIce fog.5 mph100%29.65 "Hg2 mi
Weather by CustomWeather, © 2016

See weather overviewHow to use our weather pages